Theta_e
300 291 290 289 291 293 295 296 296 297 296 297 297 295 294 294 295 297 298 300 301 298 297 298 299 299 300 301 303 305 306 306 306 307 308 311 314 317 323 327 329 332 339 346 345 343 342 342 342 341 340 339 340 341 342 342 342 342 340 340 339 340 341 340 338 338 337 336 338 340 340 339 342 342 343 343 344 345 345 346 346 347 347 346 347 346
298 290 291 294 295 296 296 297 297 297 296 296 296 294 293 294 293 297 297 300 301 298 297 299 298 298 300 302 303 305 305 304 306 307 309 310 314 317 321 325 325 330 341 345 342 342 342 339 340 340 339 338 338 340 342 341 341 342 342 341 340 340 340 339 339 338 338 340 339 338 338 339 339 340 340 341 343 344 345 346 347 347 347 346 347 347
289 288 293 296 298 298 297 297 297 296 294 296 294 294 293 294 296 298 298 300 300 298 296 299 297 298 300 302 304 304 304 305 307 307 310 313 314 316 321 324 326 329 340 341 339 339 337 338 339 338 339 340 341 342 341 342 342 342 342 343 341 340 339 340 340 339 338 341 342 341 339 339 339 343 343 342 342 345 344 347 348 348 348 346 346 347
286 290 295 299 298 296 295 296 295 295 295 294 294 293 291 295 293 291 296 298 299 298 296 298 296 298 301 303 303 305 305 306 307 307 309 312 312 315 320 323 325 328 338 338 337 336 336 337 337 337 337 339 341 342 342 342 341 341 341 341 341 341 340 340 340 339 340 342 343 343 342 343 342 340 343 344 344 344 345 345 347 347 346 345 346 346
289 294 298 298 297 296 294 294 294 293 291 294 294 293 293 294 294 295 295 297 298 298 299 297 296 296 299 299 300 304 305 305 306 308 308 310 314 317 320 321 327 330 336 339 338 337 336 335 336 336 338 339 339 340 341 342 340 340 339 336 336 336 337 339 339 339 339 339 340 340 342 343 342 342 340 340 340 341 343 344 345 345 346 345 346 346
291 297 298 296 295 295 294 292 293 292 290 292 294 295 295 296 295 295 297 295 294 293 296 296 290 291 298 298 299 302 303 303 305 306 307 310 312 314 316 319 323 332 337 340 339 338 337 335 336 337 339 338 339 340 342 342 340 336 332 336 338 337 337 338 339 340 341 338 335 335 334 333 335 334 335 335 336 339 339 340 345 345 344 345 345 345
292 297 295 294 294 293 293 293 294 294 291 290 292 297 296 296 296 295 295 295 291 289 295 297 289 288 297 297 299 301 302 302 305 307 308 310 312 314 314 316 320 330 335 338 341 340 337 336 336 337 337 338 339 340 342 340 337 334 334 337 340 340 338 339 339 340 340 338 335 335 336 335 335 335 336 340 341 341 342 343 343 343 345 344 346 346
293 293 293 295 293 293 292 291 294 294 292 290 297 296 296 295 294 295 295 294 294 297 298 297 295 290 292 297 301 301 301 302 302 305 307 308 311 313 315 318 325 330 334 336 339 339 339 337 336 335 337 339 339 341 340 338 334 337 339 339 338 339 339 340 340 340 340 337 336 337 336 337 338 337 336 340 341 343 341 340 342 342 343 345 345 344
292 291 291 291 293 292 291 294 296 296 292 293 297 297 295 295 295 296 295 294 294 294 291 294 296 290 291 299 303 302 299 301 301 305 306 307 309 313 316 320 325 329 333 335 336 338 338 337 336 336 337 340 340 340 338 337 336 340 341 338 338 337 338 340 340 339 338 337 336 337 338 336 335 337 337 337 340 340 339 339 340 341 340 340 342 342
293 294 293 294 293 291 295 296 297 296 292 296 298 298 297 297 296 296 294 294 294 291 287 292 295 289 290 296 300 302 300 299 301 306 306 308 311 313 316 321 324 330 333 335 336 337 338 338 337 337 338 339 339 341 339 339 338 340 340 337 337 336 337 338 340 339 339 338 339 338 338 336 336 337 338 338 337 338 337 338 338 338 337 336 339 338
294 298 298 295 293 296 297 298 298 296 297 299 297 295 295 295 295 296 295 294 293 285 289 293 295 292 287 294 296 300 298 301 303 307 308 309 312 314 318 321 324 329 333 335 336 338 339 338 338 337 337 338 339 338 338 336 337 337 338 338 336 337 337 338 338 339 338 339 340 340 338 336 337 336 336 334 333 334 336 336 335 334 332 333 333 338
293 294 293 295 299 298 299 296 299 298 298 296 294 293 293 292 294 293 292 294 286 284 291 294 294 295 286 292 298 303 306 304 305 305 306 308 310 312 317 319 323 329 332 334 335 336 338 336 336 336 336 337 337 337 337 335 335 337 340 339 336 336 337 338 339 338 339 339 340 340 338 337 335 334 333 335 333 334 334 335 333 331 332 332 332 334
287 290 294 295 299 296 295 294 294 296 296 294 293 293 288 285 286 283 288 283 284 284 292 295 295 291 290 296 300 302 304 305 306 307 307 308 310 313 317 321 325 329 331 332 334 335 336 335 334 334 335 336 338 335 334 333 336 339 340 338 335 334 336 338 335 334 337 338 339 338 337 337 335 335 336 336 335 336 335 334 333 331 330 331 330 332
285 291 292 293 295 298 297 291 290 290 293 292 290 290 287 283 281 279 283 286 287 290 294 293 296 290 295 297 301 301 305 307 307 308 309 310 311 314 319 323 325 328 331 333 334 335 335 335 335 334 333 335 335 335 333 334 335 338 339 338 336 334 335 335 334 335 337 336 336 338 337 336 334 335 336 336 335 335 335 334 334 332 333 333 331 331
279 280 287 291 288 297 296 296 294 292 292 292 295 292 290 289 284 279 284 281 284 287 291 294 290 288 289 293 302 303 305 307 308 308 310 311 311 314 318 321 324 329 332 333 333 333 334 335 336 334 333 334 334 335 335 335 336 338 339 337 334 334 334 332 334 335 334 334 334 337 337 337 336 336 335 336 333 332 332 334 332 333 333 332 332 329
284 284 290 295 295 297 295 298 299 295 293 295 295 295 291 290 294 286 288 289 288 288 287 289 288 295 294 303 304 305 305 305 307 309 313 314 314 313 315 318 323 327 330 331 332 333 334 336 336 334 334 334 334 335 335 336 337 337 338 337 335 334 333 333 333 333 334 335 335 336 336 336 335 334 335 334 333 333 333 332 332 333 332 331 331 329
286 283 292 293 297 296 296 298 298 299 286 292 293 289 291 298 295 289 288 292 290 288 285 292 291 295 301 300 302 303 303 304 306 308 310 311 313 318 321 324 326 328 328 331 331 332 334 335 336 334 334 334 334 335 335 336 337 337 337 336 335 334 333 333 333 333 332 334 337 337 336 336 335 333 332 331 331 332 332 332 332 331 328 329 329 328
284 285 291 292 291 296 299 299 299 299 299 294 289 292 298 299 297 292 284 286 285 283 285 292 288 290 291 289 301 302 302 303 304 305 307 310 312 313 315 320 324 327 329 331 331 332 333 334 334 333 333 334 334 335 336 336 338 338 336 334 334 334 332 333 333 332 331 334 336 337 336 336 335 334 333 331 331 332 330 330 330 327 326 327 327 327
292 283 288 292 293 296 299 298 296 299 301 295 293 300 291 285 285 291 288 280 280 280 284 289 291 291 292 294 300 300 300 302 303 305 306 309 312 314 316 318 324 328 330 330 330 331 332 333 333 332 333 334 335 336 337 337 338 337 335 335 336 334 334 334 334 334 334 336 335 334 334 335 335 334 332 332 332 329 327 327 328 325 326 326 326 325
293 284 286 294 293 295 296 295 287 292 298 300 300 295 298 295 291 288 288 291 289 282 282 286 290 287 295 297 301 302 303 304 305 306 306 309 313 315 317 320 326 327 329 329 330 331 331 332 332 332 332 332 334 335 336 337 337 335 334 335 335 334 334 333 333 334 334 335 335 335 335 335 334 333 332 330 329 328 327 326 325 324 325 324 324 324
289 294 282 289 295 294 288 292 291 292 290 292 292 292 293 294 297 295 294 291 289 285 284 284 284 291 297 301 301 302 305 307 307 309 313 313 314 315 317 324 327 328 329 330 330 331 331 331 331 332 333 334 335 336 336 335 334 333 334 334 334 333 332 331 333 334 334 336 336 335 336 334 333 333 331 330 329 328 327 327 325 324 324 323 323 324
288 289 284 288 289 288 291 295 296 295 295 293 292 291 292 291 289 286 285 294 292 289 285 285 284 295 301 303 303 302 304 306 310 310 311 314 315 317 323 327 329 328 329 330 330 330 330 331 331 332 333 333 334 334 333 334 334 333 334 334 334 334 332 332 333 335 333 332 335 335 333 331 330 329 329 330 328 327 327 325 324 323 323 322 322 324
296 293 290 285 288 289 293 296 299 299 298 296 295 293 295 294 294 290 283 287 291 292 294 293 288 290 309 311 311 309 312 311 312 309 311 319 323 325 327 328 329 329 329 328 329 329 329 330 331 331 332 332 333 333 333 333 333 333 335 335 334 333 332 333 332 330 331 331 331 331 331 329 326 326 326 326 326 324 323 322 323 324 323 322 322 323
294 290 287 288 291 293 295 297 298 299 298 295 295 297 295 292 293 292 292 294 290 291 289 290 286 293 309 313 315 315 317 315 317 319 321 322 324 325 326 326 327 327 328 328 328 329 329 330 331 331 331 331 332 332 333 333 333 334 334 334 333 332 332 332 330 330 331 329 328 330 330 328 327 327 326 325 324 322 321 321 321 323 323 322 321 320
288 291 289 284 284 286 289 292 293 296 297 294 293 295 296 295 295 296 296 299 289 292 292 290 284 292 306 318 316 315 314 313 315 319 322 321 323 324 324 325 326 326 326 327 327 328 329 329 329 329 330 331 331 331 332 332 332 332 331 331 331 332 333 331 331 331 330 328 327 329 329 329 328 327 326 324 323 321 321 320 321 321 320 320 320 320
291 290 288 282 278 276 276 278 281 285 290 294 295 295 296 294 294 294 288 291 287 292 293 290 291 298 307 315 315 316 316 317 319 320 322 323 323 322 323 323 323 324 324 326 327 328 328 328 329 329 331 331 331 331 331 332 332 331 330 330 331 331 328 329 331 332 330 329 329 328 327 326 326 325 322 318 317 319 320 319 320 319 319 319 319 319
292 294 292 290 287 285 287 289 293 293 292 290 292 294 294 295 296 296 295 290 288 292 291 294 296 298 300 304 307 316 318 318 319 320 320 320 321 323 324 323 323 323 324 325 326 326 328 328 329 330 331 330 331 332 331 331 331 330 329 328 328 327 327 329 330 331 330 330 329 326 325 325 324 323 320 318 317 317 318 318 319 319 319 319 319 318
294 289 292 293 292 292 293 292 294 293 291 292 291 292 294 294 295 294 289 289 296 293 288 296 298 297 298 300 305 313 316 318 319 320 321 321 320 320 322 322 318 324 325 327 326 326 326 328 329 330 330 330 331 332 330 330 329 327 327 327 326 325 327 329 331 330 327 324 323 323 324 323 322 320 319 317 316 316 316 317 316 317 319 319 318 317
295 288 292 293 292 293 293 293 293 293 293 292 292 293 292 294 294 293 293 296 297 291 291 297 301 298 299 303 308 314 316 318 317 319 321 321 321 321 321 321 322 322 324 324 325 325 326 327 327 328 328 329 330 328 327 327 327 327 327 327 326 326 330 331 330 328 324 321 321 322 323 322 320 319 317 316 315 314 314 314 316 317 318 318 317 317
295 291 293 293 292 293 293 293 294 292 292 292 292 293 293 294 294 295 295 296 297 297 298 300 300 299 301 306 311 317 318 317 318 320 320 320 320 320 320 320 321 322 323 324 324 325 325 326 327 328 328 328 328 326 326 325 325 325 325 326 327 327 329 330 330 328 323 321 321 320 320 319 318 317 315 314 313 312 313 314 315 317 317 316 316 316
295 288 293 293 292 292 294 293 294 293 292 291 292 293 293 294 294 294 296 297 298 297 298 298 298 298 308 314 317 318 318 318 319 318 318 320 320 320 320 320 321 322 322 324 324 325 326 326 327 327 327 327 327 326 326 326 326 326 325 325 325 326 329 330 328 327 324 321 320 319 317 315 314 313 313 313 312 312 312 314 315 316 315 315 315 316
295 290 295 294 288 289 292 292 293 293 293 292 292 293 293 293 292 294 292 297 296 295 297 297 295 297 311 314 314 317 316 316 316 317 319 319 321 320 320 321 322 322 323 323 324 325 325 325 325 325 326 327 327 326 326 326 326 327 323 322 323 325 327 326 326 326 324 320 319 317 316 314 313 313 313 313 312 312 313 313 314 313 313 314 315 315
296 293 289 290 288 287 292 292 293 293 292 289 289 293 294 295 295 296 296 298 299 300 295 291 295 309 312 314 314 314 316 316 317 318 319 320 321 320 320 321 322 323 324 324 324 325 325 325 325 326 326 326 325 325 326 325 325 324 322 322 323 324 325 324 325 324 321 319 318 317 316 314 312 311 311 311 311 312 312 312 313 313 314 314 315 315
295 295 291 295 287 287 292 293 293 290 282 284 298 300 298 295 295 294 295 298 301 301 298 301 304 310 315 313 315 315 316 317 319 322 323 322 320 320 321 322 324 324 324 326 326 326 326 326 327 326 326 325 325 326 327 327 326 325 325 323 323 323 324 324 324 322 319 319 319 318 315 314 312 311 311 311 311 312 312 313 313 314 314 314 314 314
295 295 292 295 289 287 291 292 286 281 284 300 301 302 300 300 298 296 298 299 300 300 300 302 302 307 313 316 316 318 319 320 321 322 323 324 323 322 322 323 323 324 325 326 327 326 326 326 326 325 323 323 323 324 324 323 322 322 322 324 324 324 322 322 321 319 319 318 318 315 313 313 312 311 311 312 312 312 312 313 313 313 313 314 313 313
292 292 293 290 291 291 288 287 279 282 297 301 300 302 305 302 302 299 297 300 302 302 303 302 303 313 315 315 315 317 318 320 322 323 324 325 325 324 323 323 326 326 325 326 326 326 326 326 324 322 321 321 322 321 322 320 319 319 319 322 323 323 322 320 318 317 318 317 316 314 313 313 311 311 311 312 313 313 312 312 312 313 313 313 313 313
298 296 293 289 294 285 287 287 287 297 297 298 297 298 297 296 297 296 290 297 307 306 305 303 307 313 315 315 316 317 318 320 319 320 325 325 326 327 326 326 327 328 328 328 328 327 328 326 324 322 321 321 320 319 319 319 319 319 319 321 322 321 321 319 317 317 317 316 315 314 312 312 312 312 313 313 313 312 312 312 312 313 313 313 312 311
299 294 295 290 287 291 288 286 287 287 284 291 303 306 308 308 309 309 304 300 308 311 310 309 309 314 315 315 316 316 318 316 314 316 323 325 326 327 327 328 328 328 330 329 329 328 326 324 321 321 320 319 319 318 319 319 319 318 319 322 322 321 320 319 318 318 317 316 314 312 312 312 313 313 313 314 313 313 313 313 313 313 313 312 311 310
300 300 298 293 289 290 288 285 284 284 289 299 303 306 309 308 308 311 300 294 306 311 312 310 311 315 317 315 315 317 316 311 311 318 322 325 326 327 326 327 327 327 329 330 328 326 324 323 322 320 320 319 317 317 318 317 317 317 319 323 322 321 320 319 319 319 319 317 316 316 314 314 314 314 314 314 314 314 313 313 313 313 313 312 311 310
296 296 293 291 288 290 288 287 285 291 289 301 306 307 308 309 309 303 287 289 306 312 312 311 313 316 317 317 317 317 315 306 312 318 324 325 326 327 327 326 327 327 327 328 329 328 326 323 320 320 319 318 318 319 319 318 317 317 322 324 323 321 320 319 319 320 320 319 318 317 316 316 315 315 314 314 314 313 313 313 312 312 312 312 311 309
292 291 293 290 292 291 289 290 292 293 299 307 307 308 306 306 305 290 286 296 310 313 314 313 316 318 319 317 317 314 319 319 319 319 324 326 325 327 328 328 328 327 327 327 326 317 323 322 321 319 319 321 320 319 319 317 316 316 319 319 320 320 320 321 321 320 319 318 316 316 315 316 316 315 314 313 312 312 312 312 311 311 311 311 310 308
292 293 292 294 291 290 291 290 291 294 300 307 309 306 307 300 289 288 303 313 314 314 314 314 316 318 319 318 318 319 321 320 319 320 324 325 324 326 327 327 327 327 328 326 321 322 323 321 320 318 318 320 320 318 317 318 317 319 320 319 319 319 321 321 320 319 318 317 316 316 315 315 315 314 313 312 310 310 310 311 311 311 310 310 309 307
291 290 290 290 291 292 292 289 289 285 297 310 309 308 312 297 299 308 313 315 316 316 316 315 317 318 319 317 319 320 319 319 320 321 324 324 324 325 326 326 326 322 322 323 323 321 320 319 318 317 316 316 316 316 317 318 318 320 318 319 319 320 320 319 318 317 316 317 317 315 315 315 314 313 312 311 311 310 309 310 310 311 309 309 307 306
299 290 290 291 293 289 290 288 288 297 304 311 309 299 307 309 312 314 314 313 317 317 316 317 316 319 318 319 318 318 318 319 320 323 324 324 324 325 326 326 324 321 322 323 322 320 320 318 317 315 315 314 315 317 318 317 317 316 318 320 321 319 318 317 317 317 316 316 315 313 312 312 311 311 310 309 309 309 309 308 309 309 308 308 307 305
299 296 295 292 298 294 292 296 303 306 308 310 311 310 311 313 314 315 315 315 315 316 319 317 317 318 320 319 319 320 318 318 319 321 321 322 323 324 324 323 321 321 321 320 320 320 319 317 315 314 314 314 314 316 317 319 318 317 318 321 320 317 316 316 316 316 316 315 313 312 311 310 310 310 310 309 309 308 308 309 309 307 308 307 306 305
300 301 300 300 299 305 305 306 309 308 309 309 311 312 311 313 314 315 316 314 316 317 318 316 317 318 318 321 319 318 318 318 319 319 319 321 322 323 323 322 321 322 322 320 319 318 318 317 315 314 312 313 314 314 314 316 319 318 319 318 318 317 317 315 314 314 315 313 312 311 311 310 310 310 310 310 309 309 308 309 308 306 307 306 305 305
300 302 302 298 300 298 292 305 304 306 308 309 310 312 314 314 313 315 316 316 316 317 318 318 317 317 319 320 319 318 317 319 319 319 319 319 320 321 321 321 321 321 320 318 318 316 317 315 313 312 312 312 314 314 315 315 316 317 317 316 317 317 317 315 314 313 313 311 311 311 311 310 309 309 309 309 309 309 308 308 308 307 305 306 305 305
297 304 301 300 300 296 296 305 306 308 309 310 310 310 311 312 314 315 315 316 317 318 318 318 319 318 320 320 320 319 317 319 318 318 319 319 319 320 320 320 320 320 320 320 319 320 318 316 313 312 312 312 313 314 314 315 314 316 317 316 316 317 316 314 314 312 310 309 309 309 309 308 298 304 307 307 306 306 307 307 308 307 305 306 306 305
300 304 295 301 298 301 305 307 307 308 308 309 311 313 314 313 314 316 316 317 318 318 319 318 320 320 321 320 321 320 318 318 319 319 319 319 319 319 320 321 321 321 321 319 319 319 319 318 314 313 312 312 314 315 315 315 313 314 316 315 315 315 314 312 310 310 310 309 309 308 307 306 306 307 306 306 306 307 308 307 307 307 308 309 310 309
305 300 302 301 296 297 299 304 307 299 296 306 309 312 314 315 316 316 317 317 318 318 318 318 318 320 320 321 321 321 319 319 319 320 318 319 320 319 319 320 321 321 321 322 321 320 318 317 317 315 313 312 313 313 314 314 314 313 316 315 314 314 312 310 310 310 309 309 309 308 306 306 306 307 306 307 307 307 304 291 293 303 309 307 294 290
302 301 303 296 296 296 304 307 310 310 308 309 311 314 315 317 317 316 316 317 318 318 319 319 318 318 319 320 321 320 319 319 318 319 319 319 319 320 320 320 321 322 320 319 317 317 317 317 316 314 313 312 312 311 311 312 313 311 311 312 313 312 310 309 308 308 310 310 309 305 306 306 306 307 308 308 307 306 303 304 301 289 289 292 292 291
Wind_Speed
13 16 18 19 19 21 23 22 19 14 4 13 15 16 14 13 12 14 15 12 17 16 19 20 19 18 19 20 20 17 11 12 14 17 16 15 14 12 11 10 9 9 8 8 11 12 13 14 12 11 11 13 15 15 16 16 17 16 13 12 13 11 11 11 11 10 10 9 9 9 8 8 8 8 8 8 7 7 7 7 7 7 5 6 6 5
16 16 20 20 18 17 21 19 19 14 11 13 13 16 14 15 13 14 15 14 13 14 13 17 18 20 19 18 19 19 19 16 14 14 16 17 16 13 12 11 11 10 7 10 10 11 13 12 12 12 13 15 17 16 17 17 16 15 13 12 11 10 10 10 10 10 9 9 9 9 9 8 8 8 9 8 8 8 7 8 7 6 6 7 6 5
18 21 21 20 15 13 16 20 20 15 13 12 13 13 13 13 12 10 14 15 12 12 11 14 17 17 18 19 17 18 19 16 17 16 14 15 16 14 12 12 11 11 10 11 11 12 12 13 14 13 13 14 16 16 16 16 15 13 12 10 10 9 9 9 10 10 10 10 10 10 9 8 8 7 7 7 8 7 7 6 6 6 6 7 6 6
18 20 20 18 16 15 16 19 22 17 13 11 11 12 14 12 13 11 12 14 13 10 9 13 13 12 16 18 18 16 17 16 17 19 18 15 15 15 14 12 11 13 12 13 14 15 14 15 14 14 14 13 14 13 14 13 13 10 10 8 7 7 8 11 12 12 12 11 9 8 7 7 6 7 5 5 6 7 6 7 6 6 7 7 6 6
18 11 18 19 19 18 16 18 20 16 13 14 14 12 11 14 14 10 10 13 12 12 13 11 12 12 14 16 15 16 17 16 16 17 18 17 15 13 12 13 12 13 13 13 15 16 15 15 15 16 15 14 15 13 12 11 9 7 7 8 12 14 15 15 15 15 12 10 10 9 9 7 5 4 6 7 7 6 6 6 7 7 7 6 5 5
19 13 14 19 18 18 18 17 20 17 14 13 16 15 12 13 14 13 6 14 9 11 14 13 9 13 13 18 17 13 14 16 14 14 16 16 16 16 15 14 12 12 12 13 15 16 16 16 15 15 16 16 14 13 9 9 10 12 10 15 14 12 12 12 14 13 10 11 11 11 10 10 8 8 9 9 8 7 8 8 7 6 6 6 4 5
13 14 11 20 20 20 19 16 18 19 14 13 14 14 13 11 12 14 10 11 10 11 13 16 14 7 11 16 18 16 16 18 15 16 16 16 15 16 15 14 13 13 12 11 11 14 15 15 15 16 16 15 13 12 10 9 12 14 18 16 10 7 9 9 10 11 10 11 10 11 10 8 8 8 7 5 6 6 6 7 7 6 5 5 5 5
14 17 14 16 19 18 17 15 17 20 15 13 12 17 9 11 15 14 14 12 8 7 4 17 13 11 9 12 16 19 17 17 18 17 17 17 17 17 16 15 13 13 13 12 13 14 14 15 15 16 15 13 12 10 11 11 11 14 10 7 9 8 11 9 9 11 10 10 11 11 10 7 6 6 5 4 5 5 5 6 7 6 5 4 4 3
18 18 17 20 19 17 16 14 16 20 15 9 13 18 14 11 10 12 12 10 11 9 11 11 15 11 12 4 7 16 18 18 18 17 18 18 18 18 17 16 14 13 13 14 13 14 14 14 14 13 14 13 12 13 14 14 10 8 10 13 11 11 10 10 10 10 11 10 12 9 8 7 6 6 5 6 5 6 6 7 6 6 5 3 1 3
13 17 15 17 16 16 15 14 14 20 15 10 12 15 13 11 10 9 9 10 9 8 12 14 16 12 10 12 9 12 15 17 16 17 18 19 19 18 16 16 14 13 12 13 13 13 13 12 13 13 12 13 12 11 14 15 12 10 11 13 15 15 13 13 12 11 12 12 12 10 9 11 9 6 6 6 6 6 7 7 6 4 5 6 4 3
9 12 14 14 16 14 15 16 15 18 15 9 13 15 13 12 9 7 8 9 9 11 15 15 17 14 10 12 13 11 13 13 14 13 15 17 18 17 16 15 14 13 12 12 13 12 13 12 12 12 13 13 12 12 13 15 13 12 14 16 15 14 11 12 12 11 13 13 12 11 12 12 10 10 8 8 6 5 7 7 7 8 7 6 5 2
8 16 14 12 15 11 14 16 15 16 14 13 12 13 12 10 9 8 8 7 9 12 12 16 15 16 14 9 10 11 11 15 14 16 17 18 19 18 16 15 15 14 13 13 12 13 13 13 12 12 13 14 14 14 13 15 15 13 11 10 11 11 9 11 10 10 11 11 11 11 13 12 9 8 8 10 9 9 8 8 8 8 7 8 8 6
8 14 14 15 14 15 14 14 15 17 15 14 14 14 14 11 9 9 10 12 14 10 8 16 14 11 17 8 4 7 12 14 14 13 16 18 18 18 17 16 14 13 13 13 12 12 13 13 13 14 14 14 14 14 14 15 15 14 13 13 13 13 13 11 12 12 14 11 9 11 12 10 8 8 7 8 8 7 7 7 10 12 11 8 6 5
8 12 17 16 15 14 15 16 16 16 16 17 17 17 16 14 13 13 14 8 7 10 2 6 12 13 5 12 15 5 8 12 13 12 14 17 17 17 16 16 14 13 13 12 12 12 13 13 13 14 14 14 13 15 15 15 15 14 13 12 11 11 11 12 14 15 12 7 7 8 11 11 9 8 8 6 6 6 5 7 9 11 9 9 7 7
11 12 15 19 14 18 17 15 16 12 18 16 15 16 14 12 11 11 11 12 12 10 11 8 9 7 12 6 10 16 7 6 9 11 9 12 17 16 16 16 15 14 13 11 12 13 13 13 14 13 14 14 14 17 16 15 15 15 13 12 12 12 12 16 16 15 14 10 11 10 10 9 8 5 6 6 6 7 8 6 9 9 8 7 5 6
14 8 13 17 12 20 19 16 15 15 13 13 12 13 14 13 6 8 3 7 10 7 10 11 7 4 7 5 4 7 14 12 10 11 9 8 8 12 13 14 14 13 13 12 12 13 13 13 13 12 13 15 14 17 15 16 15 14 11 12 13 13 15 16 17 17 14 10 9 10 11 9 9 6 6 6 6 6 6 6 7 7 6 7 6 6
12 7 16 18 15 20 19 17 16 16 13 14 13 15 15 10 6 3 2 7 2 4 7 5 10 7 0 4 9 9 11 14 12 12 11 12 11 10 10 11 13 12 13 13 13 13 14 13 13 13 14 14 15 16 16 16 15 13 10 11 13 12 14 17 17 15 14 12 12 13 13 11 10 10 11 9 10 9 8 8 6 6 5 7 7 7
11 9 15 17 18 16 20 17 15 18 9 11 13 13 9 2 6 7 6 5 6 7 4 9 11 11 8 4 12 12 12 14 15 15 14 12 12 12 11 11 12 13 13 14 14 13 13 13 14 13 13 15 15 16 16 16 14 11 10 11 13 14 15 18 19 18 16 13 13 12 13 12 12 11 9 10 10 8 9 9 5 7 6 7 8 7
11 9 13 17 14 17 18 17 15 16 17 13 11 9 10 9 7 7 4 9 10 9 6 8 9 9 11 8 7 12 13 15 17 17 17 15 13 13 12 13 12 13 12 13 13 12 12 13 13 14 14 15 15 16 15 14 13 11 11 11 12 16 17 20 18 16 14 14 11 13 16 14 11 9 10 8 9 12 12 10 7 8 7 8 7 8
11 8 11 15 15 16 17 16 15 17 16 12 11 10 11 6 9 9 6 3 8 7 6 7 10 7 8 9 8 9 12 14 16 15 16 17 16 13 11 11 13 13 13 13 13 12 13 13 13 14 15 16 16 16 14 14 11 14 13 12 12 14 15 18 18 16 15 15 13 14 14 15 12 11 10 12 13 12 12 11 10 9 10 8 7 9
8 5 10 14 16 17 15 15 17 17 18 14 13 12 11 7 7 7 8 7 6 6 7 6 5 6 9 10 10 10 8 11 14 14 13 13 15 15 12 11 12 13 13 13 13 13 13 13 14 15 15 15 14 14 13 12 13 14 14 15 14 16 16 17 16 15 14 14 13 13 13 13 11 10 11 13 14 13 12 11 10 9 8 8 9 9
5 8 10 14 15 15 14 15 17 18 16 12 11 12 12 12 10 11 9 8 6 6 5 6 6 2 6 5 10 14 13 9 13 15 13 12 11 10 9 11 12 12 13 13 13 13 13 13 15 15 15 14 14 14 14 12 13 14 14 14 14 14 15 16 15 12 11 8 10 12 9 10 10 12 11 10 14 14 12 11 10 9 10 9 9 9
3 4 11 14 14 13 12 16 16 17 15 13 11 10 12 11 8 9 7 9 8 4 3 1 1 2 6 2 1 1 4 5 7 10 10 9 9 10 9 11 12 13 13 14 13 13 13 14 15 15 16 16 16 14 14 13 13 13 14 14 13 13 14 13 9 9 12 13 13 14 14 13 13 14 15 15 14 13 13 14 10 8 9 10 9 9
3 4 13 11 10 11 11 15 14 14 16 15 13 12 12 13 12 9 5 7 7 7 6 3 3 2 4 3 0 1 3 3 3 3 7 8 9 10 11 12 13 13 13 13 12 12 13 13 14 14 15 16 13 13 12 13 14 14 12 12 12 14 14 12 12 12 14 14 14 15 15 15 16 17 16 15 13 13 15 13 9 6 8 9 9 10
5 5 12 13 11 10 7 11 14 13 15 14 12 13 14 13 12 9 8 2 6 8 7 4 5 5 5 2 3 3 4 4 5 5 6 9 9 10 11 11 11 13 12 13 14 14 14 15 16 15 15 15 14 14 14 14 15 12 11 11 13 14 13 15 15 15 15 15 16 15 15 16 16 16 16 15 12 12 11 12 9 9 9 9 10 10
4 7 10 12 13 13 14 16 18 17 18 13 13 16 15 17 17 9 6 8 5 6 5 3 2 9 6 5 7 5 5 6 6 7 7 7 9 10 10 11 11 12 13 15 15 15 16 15 15 14 15 13 13 14 15 15 14 14 14 15 13 10 14 15 14 13 15 14 14 14 16 15 14 15 16 16 13 11 11 11 9 9 8 9 11 10
4 6 8 11 12 12 12 12 12 13 13 15 17 18 18 17 16 11 8 6 7 5 5 9 5 5 5 6 7 6 4 6 7 8 9 9 10 10 10 11 12 12 14 15 15 14 14 16 17 17 15 14 14 15 14 13 13 15 16 16 15 14 14 13 13 13 12 13 13 14 15 15 15 15 16 14 12 10 9 8 9 8 9 9 10 10
4 6 6 8 11 9 10 7 10 14 15 14 15 16 16 17 17 15 10 9 8 3 8 2 2 4 3 5 6 5 5 4 5 7 9 9 10 11 12 13 14 14 15 14 15 16 16 17 17 16 14 14 12 11 12 13 15 15 15 15 13 13 13 11 12 11 11 12 13 13 14 15 16 15 15 13 13 11 9 8 7 9 9 9 10 10
3 4 7 6 9 7 6 10 12 13 14 15 15 15 17 17 17 17 13 9 8 7 4 7 7 5 5 7 7 5 4 4 5 7 8 9 11 12 13 15 16 15 16 16 16 16 17 16 15 16 14 13 14 15 16 15 15 14 14 14 12 13 14 13 13 15 14 13 12 12 13 14 14 13 13 13 12 12 10 8 8 9 10 9 9 9
3 4 4 4 6 7 8 11 16 17 16 16 16 16 16 16 16 17 14 13 11 11 6 5 9 9 8 6 6 5 4 3 5 7 8 10 12 13 14 14 15 15 16 16 17 17 16 16 14 14 14 14 16 16 15 15 14 14 14 14 13 14 13 13 13 14 14 14 14 13 13 13 13 14 12 12 12 11 10 9 9 10 10 10 11 11
6 6 2 3 6 9 9 8 13 16 17 17 17 17 17 16 16 16 14 14 16 15 11 10 10 10 4 5 4 4 3 4 6 8 10 11 12 13 14 14 15 14 15 15 15 16 16 14 15 15 14 16 16 15 15 14 14 14 13 14 14 14 13 13 13 14 13 14 14 14 14 12 10 11 12 11 11 10 11 11 10 11 11 11 12 13
5 1 3 3 3 9 12 13 12 15 15 15 16 17 18 18 17 17 14 14 14 12 6 7 9 6 5 4 4 3 2 4 6 8 9 10 13 13 14 15 15 15 15 15 15 16 15 16 16 16 17 16 16 16 15 15 15 15 13 14 14 13 13 11 12 14 13 14 14 14 15 11 11 12 12 12 12 12 11 11 11 11 12 13 13 13
6 2 1 1 3 7 13 14 14 15 13 12 13 16 18 17 14 14 14 13 15 9 6 5 8 6 4 4 2 2 2 4 5 7 8 9 11 13 14 15 15 16 15 17 17 17 16 17 16 17 16 16 15 15 16 15 14 14 13 13 13 12 12 11 13 13 13 14 15 15 14 13 12 12 11 10 10 10 11 11 12 14 14 14 13 13
4 4 3 2 2 9 13 13 12 12 10 9 5 10 17 17 18 17 15 15 12 8 7 6 5 5 2 2 2 1 2 3 5 6 7 9 9 10 12 13 14 15 15 16 17 17 17 15 14 14 15 15 15 16 15 15 14 13 14 14 14 15 13 14 15 13 14 14 15 15 13 13 13 13 11 11 10 10 11 13 14 14 13 13 13 13
3 2 3 1 2 8 10 11 10 10 8 6 1 3 10 14 16 16 15 15 12 12 13 10 10 7 4 3 1 1 2 2 3 7 7 9 10 10 12 13 13 16 15 16 15 16 14 15 16 16 16 15 16 15 14 14 14 13 14 15 16 15 14 14 14 13 14 14 14 13 12 13 13 12 11 11 11 11 11 11 13 14 13 13 14 14
3 3 3 3 2 8 8 8 9 7 7 5 6 4 5 4 3 10 12 9 8 9 9 11 7 3 2 1 1 2 3 3 3 5 7 9 10 10 12 12 13 13 15 13 15 16 16 16 17 17 16 15 15 14 15 15 14 14 14 14 14 14 14 14 13 14 14 15 14 14 13 13 13 12 12 12 12 12 11 12 14 14 14 13 13 12
8 8 5 2 5 8 8 10 4 9 9 8 8 7 6 9 10 10 6 7 2 4 7 8 4 1 2 2 3 4 4 4 5 6 7 9 9 11 11 12 13 14 13 13 14 15 15 15 16 16 16 15 14 12 12 15 14 14 13 14 14 15 16 15 15 14 15 15 15 15 13 13 14 13 13 13 13 12 13 14 14 14 12 13 13 13
8 9 2 3 3 5 11 9 7 7 6 5 6 5 5 4 5 3 4 5 2 1 2 5 5 4 5 4 4 5 5 6 6 7 8 9 9 10 11 11 12 12 14 14 14 15 15 14 14 14 14 14 13 13 14 15 15 13 13 14 15 16 15 15 14 14 14 15 15 14 13 13 14 14 13 13 13 13 14 14 13 12 12 13 13 12
6 7 7 5 4 5 8 8 7 7 4 6 6 4 4 3 0 1 5 6 4 3 4 3 4 3 5 6 6 6 6 3 5 7 8 8 8 9 10 12 12 12 13 15 16 16 16 16 16 14 15 15 16 13 16 15 14 12 14 15 15 15 14 14 15 15 15 15 15 15 13 13 13 13 14 14 14 12 14 14 13 13 12 12 11 11
6 3 3 4 5 5 8 7 7 3 2 3 5 5 3 4 4 6 9 5 4 4 4 2 3 2 4 6 7 6 3 5 6 5 7 6 7 7 9 11 12 12 12 14 15 15 16 17 16 16 17 17 18 17 17 15 13 12 16 16 15 15 14 14 15 15 15 15 15 15 13 13 14 13 13 14 13 12 12 12 13 14 13 12 10 10
1 2 3 5 4 6 8 6 4 5 4 7 7 5 3 3 4 8 5 3 5 5 3 3 2 1 2 5 4 3 4 5 5 3 4 10 9 9 8 9 9 11 13 14 15 15 16 17 16 17 16 17 18 17 17 16 15 13 14 14 14 15 14 14 14 15 15 15 15 15 14 13 13 14 12 12 12 11 10 10 11 13 13 12 10 10
1 2 2 2 6 5 5 6 7 5 4 7 5 5 3 4 7 3 3 2 4 4 4 1 2 1 2 2 3 2 6 8 8 1 6 9 8 8 9 10 11 10 9 14 16 15 15 15 16 14 13 15 17 17 16 13 13 14 14 13 13 14 13 14 14 14 14 15 15 15 14 13 12 11 10 10 11 11 10 10 11 12 12 11 11 12
4 2 3 3 1 0 1 7 8 6 4 10 8 3 3 2 3 2 1 5 4 5 4 3 1 2 2 4 3 4 7 8 7 7 9 9 8 8 9 10 12 13 13 14 14 15 15 14 15 15 14 13 15 16 17 13 15 14 13 13 15 15 14 14 14 14 14 15 15 14 13 12 13 10 8 9 10 11 11 10 10 9 11 11 11 12
8 1 3 3 6 1 4 3 3 2 5 10 7 5 8 7 4 5 4 5 6 6 6 3 3 2 4 3 5 4 4 6 7 6 9 9 9 8 8 11 13 13 12 12 13 13 15 14 13 13 13 14 14 16 15 13 15 14 15 16 16 15 15 15 14 14 15 14 13 13 12 12 11 10 10 11 11 11 11 11 11 11 12 12 11 11
10 6 4 3 3 3 3 4 4 5 7 7 9 8 6 5 4 4 5 5 7 6 6 3 5 2 4 4 6 6 5 6 6 6 7 8 8 9 10 12 13 13 12 12 12 13 13 15 15 13 14 13 15 12 11 14 15 16 14 15 15 16 16 15 14 14 15 13 12 12 12 12 11 11 11 11 11 11 11 12 13 13 12 13 12 10
5 4 5 4 5 8 10 5 4 7 8 8 7 6 6 6 4 3 6 7 7 6 6 6 4 2 2 5 6 5 5 5 6 7 8 7 8 9 11 12 12 12 13 12 13 13 13 14 16 15 15 14 16 14 10 11 11 15 15 15 14 15 15 15 15 14 14 12 12 13 13 13 13 12 12 11 10 9 9 11 11 13 13 13 12 10
4 2 1 3 4 2 5 5 7 7 8 10 9 7 5 5 5 3 5 6 7 6 6 6 5 3 1 5 5 6 6 5 6 7 8 8 9 10 10 11 11 12 12 13 13 13 13 14 13 15 15 16 13 13 10 7 6 9 14 14 14 14 15 15 15 15 13 12 12 13 13 14 12 11 11 11 9 9 9 9 10 12 13 13 12 11
6 5 3 6 5 5 4 3 5 5 8 9 7 7 7 5 5 5 5 5 4 5 6 5 2 3 2 4 5 7 7 6 7 7 8 8 9 10 10 11 11 11 11 13 14 14 13 13 13 14 15 14 13 10 11 11 9 11 13 13 14 14 14 15 15 14 13 13 12 11 12 11 12 12 11 10 10 9 10 10 11 13 13 13 12 12
5 7 1 2 4 3 3 3 3 6 10 10 10 8 5 5 5 7 8 7 6 6 7 7 6 4 4 6 7 7 7 6 6 6 8 8 9 9 10 11 11 11 12 13 13 14 13 14 14 15 15 14 13 12 12 9 9 13 15 14 14 14 14 14 14 12 14 12 11 11 10 10 12 11 11 10 10 9 10 11 11 11 11 14 12 11
3 6 3 4 5 3 2 2 7 1 2 7 9 8 7 7 7 9 9 9 9 9 9 8 8 8 7 6 6 6 7 7 7 7 7 7 8 9 10 11 11 12 12 12 12 13 13 13 15 16 15 11 7 10 13 11 10 11 14 14 14 14 14 13 12 12 13 12 11 11 11 11 11 11 11 11 11 12 6 14 12 3 10 9 10 12
4 4 4 2 1 2 2 3 3 4 7 7 7 7 7 7 8 9 9 8 7 7 8 9 9 9 9 7 6 7 7 7 7 6 7 7 8 8 9 10 10 10 10 11 12 12 12 13 13 14 13 12 10 8 9 12 11 12 13 13 14 15 13 13 11 11 12 14 13 12 12 12 11 11 12 12 12 9 10 9 8 15 16 13 10 10
Wind_Direction
183 204 203 207 208 203 205 208 213 214 312 219 197 200 194 199 206 204 211 189 194 212 214 216 222 225 228 229 229 223 194 206 218 218 214 213 214 214 211 208 207 210 197 155 163 167 171 176 171 168 172 180 184 187 189 192 196 194 185 181 178 176 177 178 179 184 189 185 183 193 192 185 188 186 178 182 187 188 181 180 184 188 185 190 183 190
199 211 215 212 213 205 203 207 213 218 222 214 191 197 199 204 213 194 207 199 194 214 217 215 222 227 229 228 226 225 221 209 203 209 215 217 214 212 214 209 205 202 173 162 163 163 167 174 172 171 177 182 185 191 192 195 195 193 187 183 174 167 175 185 184 179 189 190 187 182 184 188 183 179 183 182 184 187 177 184 187 191 187 185 183 192
203 215 215 208 208 208 202 203 211 207 205 192 200 198 210 204 216 187 202 200 200 211 232 211 219 230 228 231 228 222 222 219 213 214 212 216 216 212 214 210 204 192 172 168 158 164 172 169 173 178 182 187 193 191 194 195 192 188 186 177 167 157 174 186 191 185 190 188 183 188 180 192 181 185 186 186 187 180 182 183 189 186 188 184 187 192
202 219 216 205 202 207 202 199 203 201 212 208 202 201 205 196 191 191 196 205 205 209 221 222 229 228 229 233 232 224 223 220 218 217 218 218 217 213 210 207 205 197 178 175 171 175 177 180 177 184 188 195 198 193 195 193 190 180 180 159 128 148 189 194 194 195 186 181 175 185 178 187 184 177 172 173 172 180 183 185 186 184 185 187 190 188
208 203 202 205 201 202 194 192 197 198 208 216 218 214 207 198 199 211 175 193 201 209 231 232 234 236 225 226 222 217 220 221 216 214 215 216 222 220 217 213 206 203 191 183 176 175 182 186 186 191 196 196 198 197 193 184 172 175 111 122 177 188 190 192 191 191 183 174 174 175 171 172 150 143 175 177 176 179 181 183 183 183 187 189 189 191
213 210 185 205 199 198 199 192 199 200 210 206 216 218 212 204 193 201 170 176 185 207 205 213 227 231 218 225 225 205 200 213 209 206 207 211 213 216 217 218 208 204 201 189 182 180 181 188 191 197 195 198 199 195 180 154 163 98 141 202 189 192 193 187 187 185 177 172 173 172 170 173 177 177 182 186 175 169 179 183 176 181 187 182 178 190
215 190 208 200 193 199 206 206 195 199 204 203 192 210 212 200 189 197 188 182 202 213 189 201 229 234 208 216 215 210 201 203 200 205 209 208 208 210 213 209 206 199 193 190 182 183 182 187 194 199 204 201 199 189 154 138 130 154 186 189 168 158 178 182 177 182 177 168 170 167 162 167 186 189 187 179 172 175 174 172 168 175 180 183 169 193
212 186 193 196 196 201 200 201 190 195 202 207 175 187 197 188 195 200 208 213 234 224 195 190 212 245 225 208 214 205 205 201 199 199 205 204 207 208 208 207 201 198 191 188 187 188 188 186 193 201 201 199 196 170 136 146 158 180 176 151 155 161 168 162 171 178 172 173 169 160 166 165 155 160 178 179 159 172 166 166 171 172 168 165 169 174
201 183 192 191 199 203 202 198 181 193 206 198 170 182 191 198 191 198 207 212 224 224 210 194 209 229 238 200 183 195 199 204 200 195 199 203 204 205 205 205 201 200 193 194 192 192 188 186 189 198 199 197 191 171 163 164 163 156 159 179 169 165 162 163 166 176 173 181 172 149 148 150 176 181 175 169 162 176 173 166 167 176 150 113 340 118
195 193 192 205 200 201 198 192 182 188 199 200 162 177 185 193 200 202 210 215 212 219 229 208 194 223 222 219 190 188 211 207 198 193 197 199 201 202 202 203 201 198 198 198 199 191 183 183 189 194 196 197 187 159 166 160 161 171 171 178 180 176 172 169 162 172 175 175 165 162 173 171 174 168 156 150 159 170 176 165 163 132 87 63 10 75
196 193 199 208 202 202 194 196 186 185 203 130 171 171 177 189 194 203 225 222 215 224 227 221 200 213 235 210 213 184 205 207 193 193 195 197 201 202 201 200 200 198 195 197 196 187 179 180 186 190 195 191 171 161 166 160 170 185 189 190 182 177 171 163 160 173 185 175 173 176 169 178 160 163 155 148 162 175 181 164 141 102 104 153 148 159
185 182 198 203 206 200 195 188 182 189 194 162 186 178 163 180 192 198 208 219 228 234 218 215 218 200 229 214 214 199 186 200 202 195 190 192 197 198 197 200 200 197 196 194 190 184 178 175 185 192 193 185 175 166 169 165 176 193 187 169 171 170 170 160 160 172 173 166 178 165 168 175 154 156 173 163 167 180 178 161 143 126 142 148 150 149
193 189 186 189 203 205 186 180 181 188 188 191 183 184 177 168 175 197 194 204 217 223 198 204 199 208 228 240 212 192 192 191 200 201 193 190 191 192 192 196 197 196 197 192 187 183 178 179 184 191 191 184 173 172 169 167 181 194 185 173 165 170 172 159 147 172 174 167 162 156 166 160 153 158 170 179 176 179 175 164 155 155 157 143 123 119
185 187 186 185 190 197 193 187 171 183 187 194 187 183 184 174 181 198 200 207 215 214 172 207 192 234 238 226 234 223 205 199 192 201 198 194 192 187 188 192 194 193 191 188 184 181 179 180 183 186 190 185 177 174 172 173 185 194 188 176 172 162 175 146 155 166 162 166 161 165 169 162 154 158 161 157 152 158 160 175 164 160 147 140 138 133
164 178 192 186 191 186 202 201 179 182 180 194 191 192 194 187 185 187 196 194 203 196 170 189 186 228 210 209 199 212 201 195 205 204 200 196 193 188 189 189 189 187 186 184 184 184 181 181 179 181 190 188 182 182 178 179 187 193 187 177 176 169 154 148 152 157 164 186 179 173 175 158 155 151 157 153 169 163 161 169 158 151 138 123 131 121
182 182 176 188 190 184 198 203 180 180 180 195 196 197 208 205 172 205 197 214 191 178 175 184 203 177 194 72 112 187 206 203 191 200 187 181 178 181 185 184 183 184 184 184 185 185 183 179 176 177 184 185 188 187 182 187 188 190 182 169 172 171 146 153 154 159 169 180 177 172 163 155 162 158 145 156 162 164 156 146 135 135 130 123 124 115
174 184 161 185 201 185 195 196 187 190 183 178 196 200 201 208 208 188 69 28 43 192 202 178 209 233 312 194 196 178 196 200 186 190 191 195 186 175 174 175 180 184 182 182 184 185 182 178 178 177 185 186 186 186 191 193 186 179 169 164 165 153 146 158 160 155 168 181 179 169 158 159 164 174 166 167 163 165 157 147 133 127 123 118 129 125
166 148 157 177 187 183 194 198 192 198 209 169 203 190 175 277 262 196 189 148 207 192 198 178 201 209 212 230 163 178 191 195 196 195 195 197 192 191 190 188 186 183 181 181 184 184 181 179 177 177 188 189 186 188 189 191 183 166 166 164 156 151 151 162 159 162 171 172 165 156 163 161 171 164 166 170 162 144 151 140 116 129 128 124 134 128
193 132 164 182 182 175 187 198 194 203 222 194 196 170 186 172 195 195 220 179 193 208 212 196 211 221 203 202 154 186 193 192 196 199 199 195 193 196 195 194 183 176 174 178 181 179 178 177 177 180 185 187 186 187 186 181 172 150 155 156 160 156 158 164 163 163 177 177 159 165 168 163 152 156 168 164 153 159 151 133 130 143 128 123 132 126
196 162 156 177 184 169 187 192 192 188 201 220 197 203 204 213 209 179 206 183 191 205 210 218 193 220 200 219 191 174 192 194 196 197 201 201 198 196 196 185 171 170 171 173 175 176 176 176 177 183 186 185 183 182 178 172 160 156 158 149 157 150 152 158 163 163 170 171 168 169 162 165 156 160 165 167 163 160 142 135 142 139 132 136 135 128
191 227 155 167 177 165 192 192 195 189 184 187 208 190 187 229 198 220 191 232 195 205 199 214 210 214 204 206 218 215 194 189 193 195 199 203 203 201 196 173 167 166 167 170 172 173 175 174 177 180 181 180 179 176 172 158 158 156 157 160 156 151 150 161 165 161 163 163 165 164 154 150 142 162 165 170 165 155 144 141 132 133 127 136 130 136
184 189 162 162 172 187 191 187 203 189 187 194 197 191 186 189 173 195 185 203 247 214 204 203 225 210 133 160 206 213 220 202 189 199 201 202 198 180 167 164 161 161 165 168 171 171 171 174 177 175 174 175 172 166 162 152 154 156 157 156 157 147 152 159 164 164 124 115 150 159 136 123 135 160 164 160 160 153 142 134 131 134 135 134 129 139
241 185 164 173 178 177 189 175 210 194 190 201 197 196 193 199 199 200 184 180 208 226 358 241 207 172 60 34 51 148 140 182 184 194 189 173 160 157 155 154 156 159 163 167 168 170 173 174 175 172 173 170 165 159 160 160 156 155 153 153 149 145 153 153 115 90 134 165 157 154 145 140 149 153 155 155 154 140 135 139 129 135 135 130 132 133
193 218 159 159 156 167 175 168 202 205 188 198 207 214 194 200 201 208 213 160 194 179 201 174 215 116 82 72 64 127 101 105 125 163 160 158 154 158 156 157 158 159 161 163 166 170 171 168 168 168 169 162 158 160 157 158 153 148 142 137 140 143 142 127 135 155 151 151 155 160 158 150 149 155 154 149 148 138 138 136 133 138 131 124 132 130
204 186 162 149 155 145 159 170 189 207 201 202 197 205 198 198 199 215 233 131 214 181 195 183 186 130 87 125 127 147 159 169 163 154 168 155 157 157 158 157 157 156 158 167 169 169 164 166 167 170 168 165 161 158 158 155 148 133 136 138 137 143 134 136 146 152 154 155 156 159 152 152 153 156 151 142 130 124 129 140 137 143 126 128 127 125
238 167 168 158 155 162 169 177 185 187 198 193 203 194 199 199 193 185 204 185 208 179 222 241 147 96 115 129 114 115 138 147 145 153 159 156 156 157 155 154 154 159 163 169 164 162 164 166 167 168 167 165 162 159 156 151 140 135 136 135 137 129 126 140 149 156 158 156 154 155 149 145 146 144 138 130 124 134 133 136 130 131 128 131 126 127
230 188 197 177 177 179 185 187 184 185 179 193 191 195 191 203 198 206 209 205 199 160 214 224 271 56 130 87 77 104 125 141 148 154 161 155 156 156 156 154 161 164 167 166 162 167 165 166 169 167 163 165 159 155 149 138 137 137 132 134 137 137 141 147 152 155 155 155 153 154 151 146 144 142 141 135 128 123 122 118 121 119 132 134 131 131
232 193 192 212 211 196 160 166 163 186 184 192 189 194 193 198 200 200 205 203 201 186 206 177 355 279 327 6 37 86 121 146 150 159 159 158 158 163 162 158 162 164 168 160 162 165 165 165 165 161 158 160 151 136 134 137 135 131 136 139 135 138 143 149 148 142 137 143 148 151 149 144 141 138 139 131 125 115 110 110 122 131 132 133 132 136
257 201 173 200 203 208 161 162 168 176 184 185 191 188 192 196 200 204 209 222 211 221 120 50 26 352 351 10 15 50 107 142 161 166 166 157 161 161 162 162 167 166 166 162 162 168 168 164 163 162 158 153 143 142 135 131 132 136 139 137 136 147 152 152 152 150 140 143 146 147 143 139 136 133 128 125 125 126 127 129 133 134 136 133 136 147
279 200 169 190 213 214 204 191 173 176 173 180 186 188 192 195 203 207 211 232 245 250 281 356 339 313 321 359 21 59 80 125 149 158 165 166 167 166 163 164 167 165 167 166 165 166 168 167 163 157 155 150 147 136 133 134 135 138 142 145 145 149 153 157 156 146 140 146 149 146 143 139 133 135 131 127 126 124 121 128 134 137 136 139 146 148
265 127 194 231 212 188 190 192 175 180 177 183 186 187 191 194 199 204 214 226 246 256 261 289 308 306 50 46 50 71 101 122 150 166 168 168 167 167 165 165 165 162 164 161 162 163 162 161 158 153 150 151 141 139 142 142 141 140 138 141 143 150 156 153 145 150 142 143 143 144 142 134 119 121 126 127 122 120 130 139 140 139 138 143 152 146
217 224 265 232 215 166 178 187 178 178 182 188 185 189 189 190 197 198 209 212 230 239 250 269 270 277 61 47 69 94 148 158 154 160 162 167 165 166 166 165 163 162 160 161 160 161 159 157 154 154 154 147 144 143 143 143 143 141 133 139 146 150 153 144 145 149 139 138 140 142 143 134 131 131 130 133 136 139 143 141 138 140 144 147 149 146
194 246 222 323 204 150 170 183 178 172 178 194 197 193 189 191 198 196 211 219 233 244 243 236 244 40 35 43 17 122 188 162 160 171 162 165 163 167 166 165 162 165 159 162 159 160 160 156 155 151 147 149 143 145 143 139 142 138 136 139 144 147 150 140 148 146 140 141 145 146 146 137 134 130 129 131 135 138 138 139 140 148 152 150 150 147
280 281 281 348 240 141 164 177 175 178 185 192 161 192 193 191 193 194 204 215 224 216 235 263 315 6 0 16 336 247 193 173 169 168 167 160 164 166 163 162 162 162 164 160 158 159 159 153 151 147 145 141 141 142 142 144 141 141 142 141 148 154 153 153 154 148 147 147 149 148 136 134 134 135 137 137 137 138 140 145 151 151 148 146 147 147
286 294 289 308 256 152 157 161 174 185 179 53 356 175 195 199 195 202 208 221 225 227 237 253 267 294 350 356 339 295 226 151 173 151 159 155 160 168 164 159 163 165 167 163 152 151 148 147 145 141 137 136 137 139 139 139 136 141 152 159 155 154 154 154 148 148 149 150 150 142 134 135 134 134 134 137 139 138 137 137 145 150 150 150 148 147
275 289 314 283 223 136 160 165 169 166 87 101 92 110 87 102 212 215 217 223 243 248 242 248 258 323 343 313 233 219 198 168 174 156 151 160 164 165 166 163 158 161 164 161 159 149 149 149 144 139 137 137 140 142 141 141 145 149 153 153 150 151 151 149 149 150 151 150 151 150 142 137 134 134 138 140 142 140 137 144 152 152 151 149 146 145
272 282 270 243 179 161 169 165 134 129 129 114 131 133 166 193 192 194 203 207 179 247 245 241 220 153 237 210 190 170 163 164 168 151 166 157 158 154 161 162 162 151 149 160 157 151 144 137 132 133 135 141 140 133 131 144 150 154 152 155 151 152 152 153 151 153 154 153 154 153 145 141 138 141 144 147 146 145 146 152 154 152 153 150 147 148
266 259 263 231 201 215 167 153 145 161 162 135 85 90 46 12 10 21 278 183 115 128 276 251 243 168 187 185 170 159 157 160 158 151 165 154 149 146 146 150 157 150 139 147 143 141 133 125 126 132 134 135 129 132 144 151 154 156 155 159 158 156 158 157 154 155 153 153 153 148 144 145 144 145 149 150 149 151 155 154 152 153 156 152 149 144
242 253 268 274 188 193 156 161 162 151 75 80 91 68 57 19 348 135 240 186 59 3 351 272 243 186 170 163 158 169 184 155 113 125 152 149 149 144 136 138 143 152 150 143 143 141 134 135 136 138 137 134 143 145 150 149 150 151 157 166 165 163 161 164 162 163 159 152 151 152 151 152 150 150 153 159 157 150 153 155 154 153 153 150 145 137
233 209 212 233 187 171 158 161 144 75 126 44 32 29 37 71 146 177 205 149 28 30 348 266 233 190 151 154 155 184 166 130 100 88 137 153 153 145 136 135 136 143 151 147 141 139 137 132 129 143 146 150 156 157 158 150 148 161 171 173 168 167 168 168 166 160 156 155 159 160 156 154 153 152 156 154 145 144 146 149 151 153 154 149 143 143
151 155 224 189 144 138 151 121 106 112 78 22 5 360 75 178 196 198 190 79 11 7 25 297 245 189 151 151 170 157 67 50 27 345 252 159 156 143 133 133 134 141 146 148 130 124 135 144 147 148 152 161 160 157 157 156 155 160 164 166 168 170 170 166 161 159 156 156 158 161 155 151 153 150 149 143 139 135 134 137 143 152 153 153 144 144
64 311 110 45 137 145 128 120 109 85 48 326 2 30 81 172 187 151 66 285 337 12 30 317 251 195 142 146 174 351 37 23 15 12 165 148 148 134 139 129 120 117 108 112 122 135 140 142 150 152 153 156 159 160 159 155 157 163 164 167 168 167 167 160 160 160 158 158 161 158 151 149 142 135 131 133 131 131 132 134 144 153 156 155 146 145
3 314 90 71 19 27 123 133 127 112 43 359 314 149 8 303 80 355 11 70 6 30 33 90 239 148 167 151 167 31 10 19 48 111 128 132 139 141 146 139 130 121 128 136 135 134 139 144 148 149 150 155 157 161 162 161 162 165 167 171 167 164 160 158 157 157 158 158 157 149 146 145 141 136 134 134 134 131 131 134 137 145 156 151 147 147
1 311 88 75 357 131 133 107 93 73 21 3 24 92 56 51 24 12 333 51 29 24 23 51 101 158 158 171 158 110 41 41 80 104 119 127 130 124 134 131 116 124 139 142 138 140 140 139 143 144 149 154 160 162 165 163 165 168 175 172 163 157 155 157 157 157 158 156 146 138 138 138 134 127 130 134 136 134 135 139 146 154 160 160 156 151
17 35 14 42 12 12 71 94 87 62 56 41 59 70 57 31 28 22 29 29 17 24 359 357 59 106 180 156 148 130 78 54 86 84 98 115 125 136 128 119 124 132 136 140 145 144 142 142 141 143 148 155 162 163 168 172 171 173 170 161 155 157 155 158 159 159 160 152 141 140 140 141 142 141 141 144 144 143 145 149 159 162 162 164 162 157
359 349 330 1 63 69 83 84 91 73 62 72 70 56 41 28 20 14 22 36 27 13 357 357 350 38 168 162 152 147 99 99 113 112 104 113 122 109 116 123 130 137 139 139 139 139 141 142 142 145 149 157 167 167 164 176 173 165 161 154 159 161 159 159 159 159 160 147 144 145 147 147 146 146 144 146 147 146 149 151 159 166 166 166 167 165
19 347 224 111 350 252 96 53 68 61 61 56 58 58 45 24 20 12 53 42 27 3 6 8 358 3 205 167 154 135 130 118 117 125 126 127 128 129 130 129 132 138 141 140 130 129 135 137 142 146 152 158 163 171 175 170 161 150 148 162 164 164 162 160 161 160 152 143 145 148 152 150 153 149 148 149 152 155 155 158 164 168 169 172 172 172
118 322 57 77 63 33 98 71 66 73 77 62 47 40 23 20 45 67 62 64 44 38 38 35 40 81 170 143 122 126 131 125 123 132 137 136 134 136 135 134 136 140 141 138 147 146 141 144 146 150 154 159 166 168 171 172 147 159 165 166 167 168 167 166 165 158 147 144 144 148 150 149 136 145 151 154 156 161 163 167 171 175 172 179 175 176
309 298 74 49 108 132 125 111 65 111 90 70 57 49 29 5 2 54 76 70 54 45 57 63 53 73 92 104 117 126 128 124 119 124 135 140 140 143 144 143 144 143 142 146 150 155 156 158 156 157 162 165 169 165 165 153 140 156 168 169 169 169 171 166 160 147 144 146 147 147 148 145 154 157 153 156 161 166 174 177 172 172 177 181 183 183
242 83 108 166 127 135 95 54 339 158 87 49 38 32 29 19 31 52 47 45 41 50 64 77 79 80 87 96 114 122 121 119 118 124 129 143 147 143 147 147 148 150 153 153 157 160 158 158 159 161 160 154 138 155 161 153 147 158 173 170 170 169 169 157 148 147 150 154 155 153 151 153 161 159 160 165 168 169 110 38 42 58 181 163 54 58
39 30 355 51 30 123 98 59 52 58 77 51 32 27 34 32 52 62 57 53 52 53 61 75 88 88 90 97 104 112 115 120 118 126 131 143 150 153 154 152 152 152 148 151 151 154 157 158 156 157 158 155 147 138 151 162 155 154 164 172 173 169 158 148 148 156 163 169 171 159 158 158 161 165 171 173 169 155 152 155 83 46 43 67 76 71